Location: Drocourt
(49.0571°N, 1.7669°E)
Time: 15:06:48
(UTC+00:00)

Vanguard 3 - Pass Details

Date: 17 April 2024
Orbit: 509 x 3233 km, 33.3° (Epoch: 23 May)

Event Time Altitude Azimuth Distance (km) Brightness Sun altitude
Rises 04:53:20 0° 226° (SW) 5,833 10.9 -1.4°
Reaches altitude 10° 04:58:59 10° 213° (SSW) 4,269 10.4 -0.5°
Maximum altitude 05:06:01 20° 172° (S) 2,786 9.8 0.6°
Drops below altitude 10° 05:11:02 10° 128° (SE) 2,903 10.6 1.4°
Sets 05:13:57 0° 110° (ESE) 3,519 11.5 1.8°
